Weather History for Valparaiso, FL

Change the Weather History Date:

Friday, March 8, 2013

  Actual Average Record
Temperature  
Mean Temperature 53 °F -  
Max Temperature 68 °F 66 °F 81 °F (1951)
Min Temperature 38 °F 41 °F 27 °F (1971)
Degree Days  
Heating Degree Days 12    
Growing Degree Days 3 (Base 50)    
Moisture  
Dew Point 38 °F    
Average Humidity 59    
Maximum Humidity 85    
Minimum Humidity 26    
Precipitation  
Precipitation 0.00 in - - ()
Sea Level Pressure  
Sea Level Pressure 30.24 in    
Wind  
Wind Speed 5 mph (NNW)    
Max Wind Speed 10 mph    
Max Gust Speed -    
Visibility 10 miles    
Events      
Averages and records for this station are not official NWS values.
T = Trace of Precipitation, MM = Missing Value Source: NWS Daily Summary

Daily Weather History Graph

Daily Weather History Graph

Search for Another Location

Airport:

Trip Planner

Search our weather history database for the weather conditions in past years. The results will help you decide how hot, cold, wet, or windy it might be!

Date:

Astronomy

Mar. 08, 2013 Rise Set
Actual Time 6:04 AM CST 5:49 PM CST
Civil Twilight 5:40 AM CST 6:13 PM CST
Nautical Twilight 5:12 AM CST 6:41 PM CST
Astronomical Twilight 4:44 AM CST 7:09 PM CST
Moon 3:36 AM CST (3/8) 2:54 PM CST (3/8)
Length of Visible Light 12h 33m
Length of Day
11h 45m
Waning Crescent, 11% of the Moon is Illuminated
Mar 8
Waning Crescent
Mar 11
New
Mar 19
First Quarter
Mar 27
Full
Apr 2
Last Quarter

Hourly Weather History & Observations

Time (CST) Temp. Windchill Dew Point Humidity Pressure Visibility Wind Dir Wind Speed Gust Speed Precip Events Conditions
12:55 AM 40.3 °F 36.3 °F 36.0 °F 85% 30.25 in 10.0 mi NNW 5.8 mph - N/A   Partly Cloudy
1:55 AM 42.6 °F 39.9 °F 35.2 °F 75% 30.25 in 10.0 mi North 4.6 mph - N/A   Partly Cloudy
2:55 AM 40.8 °F 36.9 °F 34.2 °F 77% 30.23 in 10.0 mi North 5.8 mph - N/A   Partly Cloudy
3:55 AM 40.3 °F 36.3 °F 33.4 °F 77% 30.24 in 10.0 mi North 5.8 mph - N/A   Partly Cloudy
4:55 AM 39.2 °F 34.2 °F 32.9 °F 78% 30.25 in 10.0 mi North 6.9 mph - N/A   Clear
5:55 AM 38.3 °F 34.8 °F 32.5 °F 80% 30.25 in 10.0 mi North 4.6 mph - N/A   Partly Cloudy
6:55 AM 42.3 °F 40.5 °F 34.0 °F 72% 30.28 in 10.0 mi NNE 3.5 mph - N/A   Partly Cloudy
7:55 AM 48.9 °F - 34.5 °F 58% 30.30 in 10.0 mi NNE 5.8 mph - N/A   Partly Cloudy
8:55 AM 56.3 °F - 33.8 °F 43% 30.32 in 10.0 mi NE 6.9 mph - N/A   Partly Cloudy
9:55 AM 61.2 °F - 32.7 °F 34% 30.32 in 10.0 mi North 6.9 mph - N/A   Partly Cloudy
10:45 AM 64.4 °F - 32.0 °F 30% 30.29 in 10.0 mi North 5.8 mph - N/A   Partly Cloudy
10:55 AM 65.3 °F - 32.0 °F 29% 30.30 in 10.0 mi NNE 8.1 mph - N/A   Scattered Clouds
11:55 AM 67.6 °F - 31.6 °F 26% 30.27 in 10.0 mi NNE 3.5 mph - N/A   Mostly Cloudy
12:55 PM 68.5 °F - 37.8 °F 32% 30.24 in 10.0 mi South 5.8 mph - N/A   Mostly Cloudy
1:55 PM 66.2 °F - 42.3 °F 42% 30.23 in 10.0 mi South 10.4 mph - N/A   Mostly Cloudy
2:55 PM 66.2 °F - 42.3 °F 42% 30.22 in 10.0 mi SSW 10.4 mph - N/A   Mostly Cloudy
3:55 PM 66.6 °F - 40.8 °F 39% 30.19 in 10.0 mi SW 6.9 mph - N/A   Mostly Cloudy
4:55 PM 63.9 °F - 44.6 °F 50% 30.20 in 10.0 mi Variable 2.3 mph - N/A   Mostly Cloudy
5:55 PM 59.5 °F - 45.3 °F 59% 30.21 in 10.0 mi WSW 3.5 mph - N/A   Overcast
6:55 PM 57.0 °F - 45.5 °F 65% 30.22 in 10.0 mi WNW 4.6 mph - N/A   Mostly Cloudy
7:55 PM 55.4 °F - 45.3 °F 69% 30.22 in 10.0 mi WSW 3.5 mph - N/A   Overcast
8:55 PM 54.1 °F - 45.5 °F 73% 30.22 in 10.0 mi WNW 5.8 mph - N/A   Mostly Cloudy
9:55 PM 52.3 °F - 44.6 °F 75% 30.22 in 10.0 mi Calm Calm - N/A   Mostly Cloudy
10:55 PM 48.2 °F - 43.3 °F 83% 30.21 in 10.0 mi Calm Calm - N/A   Mostly Cloudy
11:55 PM 48.7 °F - 43.5 °F 82% 30.19 in 10.0 mi Calm Calm - N/A   Mostly Cloudy